Regional Weather Roundup
Issued by NWS Newport/Morehead, NC

Current Version | Previous Version | Graphics & Text | Print | Product List | Glossary On
Versions: 1 2 3 4 5 6 7 8 9 10 11 12 13 14 15 16 17 18 19 20 21 22 23 24 25 26 27 28 29 30 31 32 33 34 35 36 37 38 39 40 41 42 43 44 45 46 47 48 49 50
000 ASUS42 KMHX 201510 RWRMHX WEATHER ROUNDUP FOR EASTERN NORTH CAROLINA NATIONAL WEATHER SERVICE NEWPORT/MOREHEAD CITY NC 1100 AM EDT MON OCT 20 2014 NOTE: "FAIR" INDICATES FEW OR NO CLOUDS BELOW 12,000 FEET WITH NO SIGNIFICANT WEATHER AND/OR OBSTRUCTIONS TO VISIBILITY NCZ015>017-031-032-045>047-102-103-201600- NORTH COAST CITY SKY/WX TMP DP RH WIND PRES REMARKS EDENTON MOSUNNY 63 42 45 S8 30.18F ELIZABETH CITY FAIR 65 47 52 S7 30.18F KITTY HAWK MOSUNNY 64 42 45 SW5 30.17S MANTEO MOSUNNY 62 44 50 CALM 30.18F $$ NCZ045>047-081-094-103-104-201600- CENTRAL COAST CITY SKY/WX TMP DP RH WIND PRES REMARKS FRISCO SUNNY 65 48 54 VRB6 30.17F SWANQUARTER N/A 66 N/A N/A SW2 30.15S $$ NCZ095-097-098-100-101-201600- SOUTHERN COAST CITY SKY/WX TMP DP RH WIND PRES REMARKS BEAUFORT SUNNY 67 47 48 E3 30.17F CEDAR ISLAND N/A 66 N/A N/A VRB3 30.21S JACKSONVILLE SUNNY 63 47 55 CALM 30.16F PINEY ISLAND SUNNY 68 42 38 CALM 30.17F WILMINGTON SUNNY 68 50 52 W5 30.16F $$ NCZ011>013-027>030-043-044-078>080-089-090>093-098-201600- COASTAL PLAIN CITY SKY/WX TMP DP RH WIND PRES REMARKS AHOSKIE PTSUNNY 60 42 51 S7 30.17F CLINTON SUNNY 63 47 55 CALM 30.16F ELIZABETHTOWN SUNNY 63 47 54 CALM 30.16F GOLDSBORO SUNNY 63 51 65 CALM 30.14F GREENVILLE SUNNY 64 43 45 SW6 30.18S HAVELOCK MOSUNNY 66 48 52 E5 30.18F KENANSVILLE SUNNY 63 46 53 CALM 30.17F KINSTON SUNNY 64 45 48 SE6 30.17F NEW BERN SUNNY 65 45 48 VRB3 30.18F RICHLANDS SUNNY 63 45 51 SE3 30.17F ROCKY MOUNT SUNNY 62 43 49 S9 30.16F WASHINGTON SUNNY 62 42 47 S3 30.18S WHITEVILLE SUNNY 65 49 55 CALM 30.16S $$ AMZ130-135-150-152-154-156-158-170-250-252-270-ANZ085-086-088-633-658-670-201600- MARINE OBSERVATIONS STATION/POSITION TIME TEMP WIND PRES WAVE SWELL AIR SEA DIR/SP/G HT/PER HT/PER (UTC) (F) (DEG/KT/KT) (MB) (FT/S) (FT/S) CHESAPEAKE LIGHT 1400 61 220/ 12/ 14 1022.3 64 E VA BEACH 1500 62 69 210/ 8/ 10 1021.7 3/ 7 3/ 7 DUCK 1500 61 68 210/ 6/ 9 1021.1 2 E DUCK 1500 N/A 3/13 2/13 10 NE DUCK 1500 71 N/A 3/13 2/13 OREGON INLET 1500 63 67 250/ 4/ 5 1021.9 13E OREGON INLT 1500 73 N/A 4/13 2/13 HATTERAS CG 1500 63 68 350/ 5/ 6 1022.1 DIAMOND BUOY 1500 65 320/ 6/ 8 1021.7 4/12 3/12 17 S OCRACOKE 1400 VRB 2/ 2 1021.8 CAPE LOOKOUT 1400 63 360/ 7/ 9 1021.6 BEAUFORT LAB 1500 64 68 360/ 4/ 5 1020.9 30 SE NEW RIVER 1400 68 76 90/ 2/ 4 1021.2 5 SE WRIGHTSVLE 1500 65 73 250/ 4/ 6 N/A 225 S CAPE HAT 1354 71 80 50/ 8/ 14 1021.4 4/ 9 3/ 9 41 SE CHARLESTON 1500 72 80 70/ 8/ 10 1020.0 2/10 2/10 $$

USA.gov is the U.S. government's official web portal to all federal, state and local government web resources and services.